Location: A�t Bou Chrif
(32.7193°N, 5.2385°W)
Time: 23:51:29
(UTC+00:00)

Cosmos 1862 - Pass Details

Date: 08 August 2020
Orbit: 537 x 557 km, 82.5° (Epoch: 18 September)

Event Time Altitude Azimuth Distance (km) Brightness Sun altitude
Exits shadow 19:53:51 - 158° (SSE) 2,350 6.1 -8.8°
Reaches altitude 10° 19:55:17 10° 150° (SSE) 1,827 5.5 -9.1°
Maximum altitude 19:58:44 28° 90° (E) 1,061 4.3 -9.8°
Drops below altitude 10° 20:02:13 10° 31° (NNE) 1,844 6.0 -10.4°
Sets 20:04:36 0° 20° (NNE) 2,745 7.0 -10.9°
